Weather Service Report


347 
ASUS43 KIND 271909
RWRIN 

WEATHER ROUNDUP FOR INDIANA
NATIONAL WEATHER SERVICE INDIANAPOLIS IN
300 PM EDT TUE SEP 27 2016

NOTE: "FAIR" INDICATES FEW OR NO CLOUDS BELOW 12,000 FEET WITH NO
SIGNIFICANT WEATHER AND/OR OBSTRUCTIONS TO VISIBILITY.

* - STATION DOES NOT REPORT WEATHER SUCH AS PRECIPITATION OR FOG.

+ - STATION NOT QUALITY CONTROLLED BY THE NATIONAL WEATHER SERVICE.
    USE DATA WITH CAUTION...ESPECIALLY DEWPOINT AND RELATIVE
    HUMIDITY OBSERVATIONS.

INZ001>003-010>013-019-020-272000-
NORTHWEST INDIANA
  
CITY           SKY/WX    TMP DP  RH WIND       PRES   REMARKS
GARY /AIRPORT/ MOSUNNY   72  28  20 W20G39    29.77F                  
KNOX *+        SUNNY    N/A N/A N/A W15G22    29.77F                  
LA PORTE +     SUNNY     71  33  24 W16G26    29.77F                  
MICHIGAN CITY+ SUNNY     70  37  30 MISG      29.77F                  
MONTICELLO +   SUNNY     73  14  10 W21G32    29.80F                  
RENSSELAER +   SUNNY     73  23  15 W20G25    29.79F                  
VALPARAISO     SUNNY     70  34  26 W17G30    29.77F                  

$$

LMZ046-743>745-272000-
SOUTHERN LAKE MICHIGAN
  
STATION/POSITION TIME  TEMP    WIND        PRES    WAVE
                       AIR SEA DIR/SP/G            HT
                 (UTC) (F)     (DEG/KT/KT) (MB)    (FT)
BURNS HARBOR     1801   65     260/ 19     1008.5F
MICHIGAN CITY    1800   64     220/ 25/ 28   N/A
5NW MICH CITY    1900   66 67  260/ 16/ 21   N/A     6

$$

INZ004-005-014>016-021>024-272000-
NORTH CENTRAL INDIANA
  
CITY           SKY/WX    TMP DP  RH WIND       PRES   REMARKS
ELKHART        SUNNY    N/A N/A N/A SW17      29.76F                  
GOSHEN         LGT RAIN  69  33  26 SW23      29.77F                  
LOGANSPORT +   SUNNY     72  34  25 W23G29    29.80F                  
PERU/GRISSOM   SUNNY     73  33  23 W21G33    29.78F                  
ROCHESTER +    SUNNY     73  34  23 W16G25    29.79F                  
SOUTH BEND     SUNNY     68  33  27 W17G25    29.76F                  
WARSAW +       SUNNY     70  23  17 W20       29.77F                  

$$

INZ006>009-017-018-025>027-272000-
NORTHEAST INDIANA
  
CITY           SKY/WX    TMP DP  RH WIND       PRES   REMARKS
ANGOLA *+        N/A     70  63  78 W17       29.76F                  
AUBURN +       SUNNY     70  32  24 W14G24    29.78F                  
FORT WAYNE     MOSUNNY   73  31  21 SW23G31   29.77F                  
HUNTINGTON +   SUNNY    N/A N/A N/A W18G29    29.78F                  
KENDALLVILLE + SUNNY     69  35  28 W21       29.77F                  

$$

INZ028-029-035-036-043>045-051>053-272000-
WEST CENTRAL INDIANA
  
CITY           SKY/WX    TMP DP  RH WIND       PRES   REMARKS
CRAWFORDSVL +  SUNNY     73  39  28 W13G23    29.84F                  
GREENCASTLE +  SUNNY     73  52  46 W10       29.86F                  
LAFAYETTE      SUNNY     73  35  25 W15G29    29.81F                  
TERRE HAUTE    SUNNY     76  41  28 W15       29.86F                  

$$

INZ030>032-037>040-046>048-054>057-064-065-272000-
CENTRAL INDIANA
  
CITY           SKY/WX    TMP DP  RH WIND       PRES   REMARKS
ANDERSON       SUNNY     73  37  27 SW12G23   29.84F                  
COLUMBUS       SUNNY     73  48  40 SW16G25   29.89F                  
FISHERS *+     MOSUNNY   73  48  40 W12G20    29.84F                  
FRANKFORT +    SUNNY     76  36  23 W16G25    29.85F                  
GREENWOOD *+   SUNNY     75  48  38 SW10G20   29.86F                  
INDIANAPOLIS   MOSUNNY   74  47  38 W18G30    29.84F                  
-EAGLE CREEK   SUNNY     74  43  32 SW12G22   29.83F                  
MARION +       SUNNY     74  33  22 W22G28    29.81F                  
MT COMFORT *+  SUNNY     73  46  38 W13G25    29.85F                  
SHELBYVILLE    SUNNY     76  46  34 SW22G29   29.85F                  
ZIONSVILLE +   SUNNY     73  38  28 W15G26    29.84F                  

$$

INZ033-034-041-042-049-050-058-059-272000-
EAST CENTRAL INDIANA
  
CITY           SKY/WX    TMP DP  RH WIND       PRES   REMARKS
MUNCIE         SUNNY     75  33  21 SW22G31   29.81F                  

$$

INZ060-061-067>069-081>083-085>088-272000-
SOUTHWEST INDIANA
  
CITY           SKY/WX    TMP DP  RH WIND       PRES   REMARKS
EVANSVILLE     SUNNY     78  45  30 W14       29.93F                  
HUNTINGBURG *+   N/A     75  46  35 SW18      29.93F                  
WASHINGTON +   SUNNY     76  51  40 MISG      29.89F                  

$$

INZ062-063-066-070>080-084-089>092-272000-
SOUTH CENTRAL AND SOUTHEAST INDIANA
  
CITY           SKY/WX    TMP DP  RH WIND       PRES   REMARKS
BEDFORD +      SUNNY    N/A N/A N/A SW10G22   29.89F                  
BLOOMINGTON    SUNNY     76  45  33 W14G24    29.88F                  
MADISON *+     SUNNY     75  37  25 SW13      29.93F                  
NORTH VERNON + SUNNY     75  52  43 SW18      29.90                   
SEYMOUR +      SUNNY     77  46  33 SW17G29   29.89F                  

$$

  

Return to Home page


Western Regional Climate Center, wrcc@dri.edu